FW93366 Weather Reports


Display with metric or nautical units.
time (UTC)temp
F
wind
direction
speed
MPH
gust
MPH
rain 1hr
in
rain 24hr
in
rain mn
in
humidity
%
barometer
mb
20260503213040 49 172 16.0 29.0 0.01 0.15 0.01 76 1014.1
20260503211548 50 175 17.0 37.0 0.00 0.14 0.00 73 1013.8
20260503210055 58 144 21.0 34.0 0.00 0.14 0.00 48 1012.2
20260503204558 63 190 8.0 20.0 0.00 0.14 0.00 41 1011.5
20260503203059 64 221 4.0 12.0 0.00 0.14 0.00 38 1011.3
20260503201549 63 229 4.0 10.0 0.00 0.14 0.00 45 1011.5
20260503200049 64 186 4.0 11.0 0.00 0.14 0.00 47 1011.8
20260503194603 64 171 4.0 10.0 0.00 0.14 0.00 45 1011.8
20260503193047 65 186 2.0 5.0 0.00 0.14 0.00 42 1011.8
20260503191543 65 0 2.0 8.0 0.00 0.14 0.00 43 1011.9
20260503190059 64 350 1.0 4.0 0.00 0.14 0.00 47 1012.2
20260503184541 63 38 1.0 4.0 0.00 0.14 0.00 50 1012.4
20260503183050 62 317 2.0 7.0 0.00 0.14 0.00 52 1012.8
20260503181542 62 259 1.0 5.0 0.00 0.14 0.00 55 1012.9
20260503174547 60 265 0.0 4.0 0.00 0.14 0.00 58 1013.5
20260503173131 60 0 0.0 6.0 0.00 0.14 0.00 64 1013.5
20260503171548 58 0 0.0 5.0 0.00 0.14 0.00 68 1013.6
20260503081550 50 0 0.0 2.0 0.00 0.14 0.00 83 1016.0
20260503071543 52 0 0.0 1.0 0.00 0.14 0.00 78 1016.2
20260503054545 53 0 0.0 3.0 0.00 0.14 0.14 74 1015.9
20260503053040 53 0 1.0 3.0 0.00 0.14 0.14 74 1016.1
20260503051544 53 175 1.0 5.0 0.00 0.14 0.14 72 1016.1
20260503050051 54 0 0.0 4.0 0.00 0.14 0.14 70 1015.9
20260503044543 54 0 1.0 8.0 0.00 0.14 0.14 70 1015.8
20260503043043 54 19 4.0 10.0 0.00 0.14 0.14 70 1015.6
20260503041544 54 24 3.0 9.0 0.00 0.14 0.14 74 1015.4
20260503040040 54 349 2.0 10.0 0.00 0.14 0.14 73 1015.1
20260503034539 55 16 2.0 6.0 0.00 0.14 0.14 73 1015.1
20260503033043 55 360 4.0 12.0 0.06 0.14 0.14 70 1014.9
20260503031553 56 348 7.0 14.0 0.10 0.14 0.14 66 1014.7
20260503030047 56 360 4.0 9.0 0.14 0.14 0.14 70 1014.5
20260503024543 55 36 5.0 13.0 0.14 0.14 0.14 70 1014.3
20260503023040 58 275 3.0 10.0 0.07 0.07 0.07 62 1014.5
20260503021541 59 305 5.0 10.0 0.04 0.04 0.04 60 1014.0
20260503020042 64 360 1.0 8.0 0.00 0.00 0.00 43 1014.1
20260503014546 65 259 2.0 15.0 0.00 0.00 0.00 38 1013.8
20260503013043 64 284 2.0 10.0 0.00 0.00 0.00 41 1013.9
20260503011555 65 204 1.0 9.0 0.00 0.00 0.00 39 1013.8
20260503010051 64 84 5.0 11.0 0.00 0.00 0.00 40 1013.5
20260503004542 65 15 7.0 12.0 0.00 0.00 0.00 40 1013.3
20260503003043 67 21 4.0 11.0 0.00 0.00 0.00 36 1013.5
20260503001541 68 93 1.0 7.0 0.00 0.00 0.00 36 1013.4
20260503000054 67 152 5.0 12.0 0.00 0.00 0.00 37 1013.3
20260502234546 67 189 6.0 15.0 0.00 0.00 0.00 36 1013.3
20260502233045 67 189 8.0 23.0 0.00 0.00 0.00 32 1013.5
20260502231558 69 188 7.0 13.0 0.00 0.00 0.00 34 1013.6
20260502230046 69 173 5.0 11.0 0.00 0.00 0.00 37 1013.6
20260502224555 70 173 6.0 15.0 0.00 0.00 0.00 34 1013.6
20260502223050 70 167 5.0 12.0 0.00 0.00 0.00 33 1013.8
20260502221553 70 185 5.0 13.0 0.00 0.00 0.00 31 1013.9
20260502220049 70 145 6.0 14.0 0.00 0.00 0.00 32 1014.1
20260502214547 70 167 6.0 12.0 0.00 0.00 0.00 34 1014.3